Weather History for Puyallup, WA

Change the Weather History Date:

Sunday, May 4, 2014

  Actual Average (KTCM) Record (KTCM)
Temperature  
Mean Temperature 52 °F -  
Max Temperature 57 °F 58 °F 86 °F (1992)
Min Temperature 46 °F 39 °F 30 °F (1963)
Degree Days  
Heating Degree Days 14    
Growing Degree Days 2 (Base 50)    
Moisture  
Dew Point 48 °F    
Average Humidity 90    
Maximum Humidity 100    
Minimum Humidity 67    
Precipitation  
Precipitation 0.27 in - - ()
Sea Level Pressure  
Sea Level Pressure 29.79 in    
Wind  
Wind Speed 4 mph (South)    
Max Wind Speed 12 mph    
Max Gust Speed 18 mph    
Visibility 9 miles    
Events Rain    
Averages and records for this station are not official NWS values.
T = Trace of Precipitation, MM = Missing Value Source: NWS Daily Summary

Daily Weather History Graph

Daily Weather History Graph

Search for Another Location

Airport:

Trip Planner

Search our weather history database for the weather conditions in past years. The results will help you decide how hot, cold, wet, or windy it might be!

Date:

Astronomy

May. 04, 2014 Rise Set
Actual Time 5:48 AM PDT 8:24 PM PDT
Civil Twilight 5:14 AM PDT 8:58 PM PDT
Nautical Twilight 4:30 AM PDT 9:42 PM PDT
Astronomical Twilight 3:40 AM PDT 10:33 PM PDT
Moon 10:16 AM PDT (5/4) 12:34 AM PDT (5/4)
Length of Visible Light 15h 44m
Length of Day
14h 35m
Waxing Crescent, 28% of the Moon is Illuminated
May 4
Waxing Crescent
May 6
First Quarter
May 14
Full
May 21
Last Quarter
May 28
New

Hourly Weather History & Observations

Time (PDT) Temp. Dew Point Humidity Pressure Visibility Wind Dir Wind Speed Gust Speed Precip Events Conditions
12:15 AM 46.4 °F 46.4 °F 100% 29.77 in 10.0 mi Calm Calm - N/A   Unknown
12:35 AM 46.4 °F 46.4 °F 100% 29.76 in 10.0 mi Calm Calm - N/A   Unknown
12:55 AM 46.4 °F 46.4 °F 100% 29.76 in 10.0 mi Calm Calm - N/A Rain Light Rain
1:15 AM 48.2 °F 48.2 °F 100% 29.77 in 8.0 mi South 5.8 mph - N/A Rain Light Rain
1:35 AM 48.2 °F 48.2 °F 100% 29.76 in 9.0 mi SSE 3.5 mph - 0.01 in Rain Light Rain
1:55 AM 48.2 °F 48.2 °F 100% 29.76 in 10.0 mi SSE 3.5 mph - 0.01 in Rain Light Rain
2:15 AM 48.2 °F 48.2 °F 100% 29.76 in 10.0 mi South 4.6 mph - N/A Rain Light Rain
2:35 AM 48.2 °F 48.2 °F 100% 29.76 in 9.0 mi SSE 4.6 mph - 0.01 in Rain Light Rain
2:55 AM 48.2 °F 48.2 °F 100% 29.75 in 10.0 mi Calm Calm - 0.01 in   Unknown
3:15 AM 48.2 °F 48.2 °F 100% 29.75 in 10.0 mi South 4.6 mph - N/A   Unknown
3:35 AM 48.2 °F 48.2 °F 100% 29.75 in 10.0 mi South 5.8 mph - N/A   Unknown
3:55 AM 48.2 °F 48.2 °F 100% 29.75 in 9.0 mi SSE 3.5 mph - N/A Rain Light Rain
4:15 AM 48.2 °F 48.2 °F 100% 29.75 in 10.0 mi Calm Calm - N/A   Unknown
4:35 AM 48.2 °F 48.2 °F 100% 29.74 in 10.0 mi SSE 3.5 mph - 0.01 in Rain Light Rain
4:55 AM 48.2 °F 48.2 °F 100% 29.74 in 10.0 mi SSE 4.6 mph - 0.01 in   Unknown
5:15 AM 48.2 °F 46.4 °F 93% 29.74 in 10.0 mi Calm Calm - N/A Rain Light Rain
5:35 AM 48.2 °F 48.2 °F 100% 29.75 in 10.0 mi Calm Calm - N/A Rain Light Rain
5:55 AM 48.2 °F 48.2 °F 100% 29.75 in 10.0 mi Calm Calm - N/A Rain Light Rain
6:15 AM 48.2 °F 46.4 °F 93% 29.74 in 10.0 mi South 6.9 mph - N/A   Unknown
6:35 AM 50.0 °F 46.4 °F 87% 29.74 in 10.0 mi South 4.6 mph - N/A   Unknown
6:55 AM 50.0 °F 46.4 °F 87% 29.74 in 10.0 mi South 5.8 mph - N/A   Unknown
7:15 AM 50.0 °F 46.4 °F 87% 29.74 in 10.0 mi South 4.6 mph - N/A   Unknown
7:35 AM 50.0 °F 46.4 °F 87% 29.74 in 10.0 mi South 4.6 mph - N/A   Unknown
7:55 AM 51.8 °F 46.4 °F 82% 29.74 in 10.0 mi South 4.6 mph - N/A   Unknown
8:15 AM 53.6 °F 46.4 °F 77% 29.74 in 10.0 mi South 5.8 mph - N/A   Unknown
8:35 AM 53.6 °F 46.4 °F 77% 29.75 in 10.0 mi South 5.8 mph - N/A   Unknown
8:55 AM 53.6 °F 46.4 °F 77% 29.75 in 10.0 mi South 9.2 mph - N/A   Unknown
9:15 AM 53.6 °F 46.4 °F 77% 29.75 in 10.0 mi South 6.9 mph - N/A   Unknown
9:35 AM 55.4 °F 46.4 °F 72% 29.75 in 10.0 mi South 8.1 mph - N/A   Unknown
9:55 AM 55.4 °F 46.4 °F 72% 29.76 in 10.0 mi SSW 6.9 mph - N/A   Unknown
10:15 AM 53.6 °F 46.4 °F 77% 29.76 in 10.0 mi South 8.1 mph - N/A Rain Light Rain
10:35 AM 53.6 °F 46.4 °F 77% 29.77 in 5.0 mi South 6.9 mph - 0.01 in Rain Light Rain
10:55 AM 53.6 °F 48.2 °F 82% 29.77 in 10.0 mi South 5.8 mph - 0.01 in   Unknown
11:15 AM 55.4 °F 48.2 °F 77% 29.77 in 10.0 mi SSW 5.8 mph - N/A   Unknown
11:35 AM 55.4 °F 46.4 °F 72% 29.78 in 10.0 mi South 10.4 mph - N/A   Unknown
11:55 AM 55.4 °F 46.4 °F 72% 29.78 in 10.0 mi SSW 6.9 mph - N/A   Unknown
12:15 PM 57.2 °F 48.2 °F 72% 29.78 in 10.0 mi South 6.9 mph - N/A   Unknown
12:35 PM 57.2 °F 46.4 °F 67% 29.79 in 10.0 mi SSW 9.2 mph - N/A   Unknown
12:55 PM 57.2 °F 46.4 °F 67% 29.79 in 10.0 mi South 11.5 mph 16.1 mph N/A   Unknown
1:15 PM 57.2 °F 46.4 °F 67% 29.79 in 10.0 mi SSW 9.2 mph 16.1 mph N/A   Unknown
1:35 PM 53.6 °F 48.2 °F 82% 29.80 in 4.0 mi SSW 3.5 mph 18.4 mph 0.01 in Rain Light Rain
1:55 PM 53.6 °F 50.0 °F 88% 29.80 in 10.0 mi South 3.5 mph - 0.02 in   Unknown
2:15 PM 55.4 °F 50.0 °F 82% 29.80 in 9.0 mi South 8.1 mph - N/A Rain Light Rain
2:35 PM 55.4 °F 50.0 °F 82% 29.80 in 10.0 mi South 8.1 mph - N/A   Unknown
2:55 PM 55.4 °F 50.0 °F 82% 29.80 in 10.0 mi South 3.5 mph - N/A Rain Light Rain
3:15 PM 55.4 °F 48.2 °F 77% 29.80 in 9.0 mi SSW 6.9 mph - N/A Rain Light Rain
3:35 PM 51.8 °F 50.0 °F 94% 29.81 in 4.0 mi SSW 3.5 mph - 0.05 in Rain Light Rain
3:55 PM 51.8 °F 50.0 °F 94% 29.82 in 3.0 mi WSW 9.2 mph - 0.11 in Rain Light Rain
4:15 PM 50.0 °F 50.0 °F 100% 29.81 in 10.0 mi Calm Calm - 0.01 in   Unknown
4:35 PM 53.6 °F 53.6 °F 100% 29.80 in 10.0 mi SSE 5.8 mph - 0.01 in   Unknown
4:55 PM 55.4 °F 51.8 °F 88% 29.80 in 10.0 mi South 10.4 mph - 0.01 in   Unknown
5:15 PM 55.4 °F 50.0 °F 82% 29.80 in 10.0 mi South 8.1 mph - N/A   Unknown
5:35 PM 55.4 °F 50.0 °F 82% 29.80 in 7.0 mi South 8.1 mph - N/A   Unknown
5:55 PM 53.6 °F 50.0 °F 88% 29.80 in 10.0 mi South 10.4 mph - N/A   Unknown
6:15 PM 53.6 °F 50.0 °F 88% 29.81 in 10.0 mi South 4.6 mph - N/A   Unknown
6:35 PM 51.8 °F 50.0 °F 94% 29.81 in 2.5 mi South 8.1 mph - 0.04 in Rain Rain
6:55 PM 51.8 °F 50.0 °F 94% 29.82 in 10.0 mi SSW 3.5 mph - 0.04 in   Unknown
7:15 PM 51.8 °F 50.0 °F 94% 29.82 in 10.0 mi South 5.8 mph - N/A   Unknown
7:35 PM 51.8 °F 50.0 °F 94% 29.83 in 10.0 mi South 4.6 mph - N/A Rain Light Rain
7:55 PM 50.0 °F 50.0 °F 100% 29.84 in 2.5 mi South 5.8 mph - 0.03 in Rain Light Rain
8:15 PM 50.0 °F 48.2 °F 94% 29.84 in 10.0 mi South 4.6 mph - N/A   Unknown
8:35 PM 50.0 °F 48.2 °F 94% 29.85 in 10.0 mi South 4.6 mph - N/A   Unknown
8:55 PM 50.0 °F 48.2 °F 94% 29.85 in 8.0 mi South 4.6 mph - 0.01 in Rain Light Rain
9:15 PM 50.0 °F 48.2 °F 94% 29.86 in 10.0 mi SSE 4.6 mph - 0.01 in Rain Light Rain
9:35 PM 48.2 °F 48.2 °F 100% 29.86 in 10.0 mi SSE 3.5 mph - 0.01 in Rain Light Rain
9:55 PM 48.2 °F 48.2 °F 100% 29.87 in 10.0 mi Calm Calm - 0.01 in   Unknown
10:15 PM 48.2 °F 48.2 °F 100% 29.87 in 10.0 mi Calm Calm - N/A   Unknown
10:35 PM 48.2 °F 48.2 °F 100% 29.87 in 7.0 mi South 4.6 mph - N/A Rain Light Rain
10:55 PM 48.2 °F 48.2 °F 100% 29.88 in 10.0 mi Calm Calm - N/A Rain Light Rain
11:15 PM 48.2 °F 48.2 °F 100% 29.88 in 10.0 mi South 3.5 mph - N/A Rain Light Rain
11:35 PM 48.2 °F 48.2 °F 100% 29.88 in 10.0 mi Calm Calm - N/A Rain Light Rain
11:55 PM 48.2 °F 48.2 °F 100% 29.89 in 10.0 mi Calm Calm - N/A   Unknown